Vertical_Velocity
-1 -0 -1 -0 -2 -3 -1 0 -2 -1 -2 -1 -1 0 1 -1 -2 0 0 -1 1 -1 -1 0 0 -1 1 -3 4 -0 -1 0 -0
-1 -2 0 -2 -0 -0 0 -2 -1 0 -1 -1 -0 -1 -1 -1 2 1 -1 1 -0 0 -1 -0 1 1 -1 -2 -0 -2 0 -1 -1
-0 -1 -1 0 -0 0 -1 -1 -1 -2 -1 -1 -0 -2 -2 1 -4 8 -1 -1 1 2 1 0 -1 1 -2 6 4 3 -2 -1 -1
-1 -1 0 -0 -1 -2 -2 -1 -2 -2 -1 -1 -2 -1 0 2 5 -3 -1 1 -1 -2 -2 -1 -0 -1 -3 -0 -1 0 2 5 7
-3 -2 -1 -3 -2 -1 -1 -3 -2 1 -0 -1 0 -1 0 -2 1 -3 -2 0 -0 -3 -1 1 -0 -2 -1 -1 -2 2 -2 -3 -2
-1 0 -2 -2 -2 -1 -3 0 -2 -0 -1 -1 -2 -1 -1 2 -3 -3 -0 -1 1 -0 -1 -0 1 -1 0 -2 -2 0 -2 -0 0
-4 -1 -1 0 -0 -2 0 -1 1 -3 -2 -2 -3 0 0 3 -5 -1 0 0 -1 0 -3 0 -1 1 -2 -2 -1 -0 -0 -2 -2
-3 -1 0 -1 -0 -2 -1 -1 -2 -2 3 0 -2 -1 -0 3 -2 0 -1 1 2 -1 -3 -1 -1 2 0 -1 -2 -0 -0 0 -0
0 -0 0 -1 -1 -3 -1 0 0 -2 -2 -1 -0 -1 -1 1 -6 -0 1 0 2 1 -1 -2 -1 0 0 -1 -1 -2 0 1 1
-1 3 4 -4 -1 2 -0 -1 -1 -0 -1 -3 -1 1 1 3 -6 -1 -0 -1 1 -1 1 -0 -1 -1 1 0 0 -2 -2 0 1
6 1 -3 -1 -2 1 -2 -2 -0 -2 -1 1 -2 -2 -0 0 0 -2 -0 -0 1 -2 0 -0 -0 -1 -0 1 -0 -1 -1 -1 0
-4 -2 -1 -1 -1 -0 -1 -1 -1 -2 -0 -1 -1 0 -1 -0 1 -3 1 -1 1 -1 -0 -1 0 -1 -1 -0 -1 -1 -2 -0 0
-3 -1 -2 1 3 -1 0 0 -2 -2 -1 -0 -1 -1 -1 -1 0 1 1 -2 -2 -1 0 -1 0 -1 0 -0 -1 -1 -2 -2 -1
0 1 -1 -1 -1 -0 0 -0 -1 -2 -1 -1 -1 -1 -1 0 0 0 0 -1 1 -1 -4 -0 -1 -2 1 -0 -1 -1 -1 -1 -1
2 0 -1 -2 -2 -1 -1 -2 1 -2 -3 -1 -1 -2 -2 -0 -1 -1 -1 -4 -2 -1 2 -0 -3 0 1 0 -1 -1 -1 -1 -1
0 3 -2 -2 -2 -1 -3 1 -0 -0 -3 -2 -2 -2 -2 -1 -1 -1 1 -0 1 -3 -3 -3 -0 -1 -0 -1 -1 -2 -1 -1 1
6 4 2 -0 0 -2 -5 1 -0 -0 -2 -3 -3 -3 -1 -3 -1 0 -2 2 1 2 -1 -0 -1 -2 -1 -0 -1 -0 -1 -1 -0
4 3 2 1 3 -0 -2 -1 -1 -2 -2 -2 -3 -1 -2 -1 1 1 2 0 1 -1 2 -1 -1 -1 -0 -1 -2 -2 -2 -2 -1
3 3 -1 0 0 -2 -1 1 -2 -3 -2 -2 -1 -2 -2 -3 -5 -0 -1 2 1 1 -3 -3 -0 1 0 -1 -0 1 -1 -0 0
4 1 4 0 -4 -4 -1 0 -1 -1 -2 -3 -1 -3 -3 -1 -2 -7 -6 -4 2 0 -1 -0 1 4 -1 -5 -8 -9 -9 -8 -7
Height
1528 1528 1528 1528 1529 1530 1532 1533 1534 1535 1536 1537 1538 1538 1539 1538 1540 1540 1540 1540 1538 1538 1537 1537 1537 1537 1537 1537 1538 1538 1537 1538 1538
1528 1529 1529 1530 1531 1532 1532 1534 1535 1536 1536 1537 1538 1539 1539 1539 1540 1540 1540 1539 1538 1537 1537 1537 1537 1536 1536 1536 1537 1536 1536 1537 1537
1529 1529 1530 1531 1532 1533 1533 1535 1536 1537 1537 1538 1538 1538 1539 1539 1539 1539 1540 1539 1538 1536 1536 1536 1536 1536 1536 1535 1535 1535 1535 1535 1536
1528 1529 1531 1532 1533 1534 1535 1535 1537 1537 1538 1538 1538 1538 1539 1539 1539 1538 1538 1538 1537 1535 1536 1535 1535 1534 1534 1535 1534 1534 1533 1533 1534
1528 1530 1531 1532 1533 1534 1535 1536 1537 1537 1537 1537 1537 1538 1538 1539 1537 1537 1537 1537 1535 1534 1535 1534 1533 1532 1532 1532 1533 1531 1531 1531 1531
1527 1529 1531 1532 1533 1534 1536 1536 1536 1537 1537 1537 1537 1537 1537 1537 1536 1535 1536 1535 1535 1533 1532 1532 1531 1531 1530 1530 1530 1530 1528 1529 1528
1527 1529 1530 1532 1533 1534 1535 1536 1536 1536 1536 1535 1536 1535 1536 1535 1534 1534 1535 1534 1532 1530 1530 1530 1530 1529 1528 1527 1527 1527 1526 1526 1526
1525 1529 1530 1531 1532 1533 1534 1535 1535 1536 1536 1535 1534 1534 1535 1533 1532 1531 1532 1531 1530 1528 1527 1528 1528 1528 1526 1524 1524 1524 1524 1523 1522
1524 1527 1529 1530 1531 1532 1534 1532 1534 1533 1533 1533 1533 1532 1531 1531 1529 1528 1528 1528 1528 1525 1524 1525 1526 1526 1524 1523 1521 1521 1521 1520 1519
1523 1526 1527 1529 1531 1531 1531 1532 1532 1532 1531 1531 1531 1530 1529 1528 1525 1525 1525 1525 1525 1523 1523 1523 1523 1523 1522 1521 1519 1518 1518 1518 1516
1523 1524 1525 1528 1529 1529 1529 1530 1531 1530 1530 1529 1528 1527 1527 1525 1524 1523 1522 1522 1522 1522 1522 1522 1521 1521 1520 1519 1516 1515 1515 1514 1513
1520 1522 1524 1525 1526 1527 1527 1529 1528 1528 1528 1526 1526 1524 1524 1523 1522 1521 1519 1520 1519 1520 1520 1519 1519 1518 1517 1516 1514 1513 1512 1511 1509
1517 1520 1522 1523 1525 1525 1526 1526 1526 1527 1526 1524 1523 1522 1521 1520 1520 1519 1518 1516 1516 1517 1517 1517 1516 1515 1514 1512 1510 1509 1507 1506 1505
1514 1516 1518 1520 1522 1523 1523 1524 1524 1524 1523 1522 1521 1519 1519 1518 1517 1516 1516 1515 1516 1515 1513 1514 1512 1511 1510 1508 1506 1505 1503 1502 1500
1511 1513 1515 1517 1519 1520 1520 1522 1522 1521 1521 1520 1518 1517 1517 1516 1515 1515 1514 1513 1513 1512 1511 1509 1508 1507 1505 1503 1501 1500 1498 1497 1495
1506 1508 1511 1513 1515 1517 1518 1519 1520 1518 1519 1518 1517 1515 1515 1514 1513 1513 1512 1511 1510 1509 1507 1506 1505 1503 1501 1499 1497 1495 1493 1492 1491
1502 1505 1507 1509 1511 1513 1514 1516 1517 1516 1516 1516 1514 1514 1513 1512 1512 1511 1510 1510 1509 1507 1505 1504 1502 1499 1497 1495 1492 1490 1488 1487 1485
1498 1501 1503 1506 1508 1510 1511 1512 1513 1513 1514 1513 1514 1512 1512 1510 1510 1509 1509 1508 1507 1505 1503 1500 1497 1495 1492 1490 1487 1485 1483 1481 1479
1494 1496 1499 1502 1505 1508 1510 1510 1510 1510 1510 1510 1511 1510 1510 1510 1507 1506 1506 1506 1504 1501 1499 1496 1494 1491 1488 1485 1483 1481 1478 1476 1474
1489 1493 1495 1498 1501 1504 1504 1509 1507 1507 1507 1507 1507 1506 1506 1506 1505 1499 1499 1500 1499 1497 1494 1491 1488 1485 1482 1479 1477 1475 1473 1471 1468